Theta_e
303 303 303 304 305 305 306 305 306 306 306 306 307 307 308 310 312 312 315 322 314 309 311 314 314 312 315 319 321 326 323 323 322 315 311 310 309 311 309 312 311 310 308 307 308 303 300 320 316 311 317 319 318 317
302 302 303 303 304 305 305 305 306 305 305 305 305 306 307 309 311 312 312 319 319 311 311 317 317 318 316 316 321 325 322 326 322 317 317 313 311 312 311 305 318 308 313 313 311 313 323 323 322 325 323 319 318 318
302 302 302 302 303 304 305 305 305 305 305 305 305 306 307 308 310 311 311 314 315 311 311 312 312 319 323 320 321 318 325 331 330 335 322 317 313 316 309 311 313 319 322 314 314 316 320 323 325 325 322 320 320 320
302 302 302 302 303 303 304 305 305 305 305 305 305 305 307 307 309 310 310 314 313 311 305 310 320 317 321 326 321 319 324 331 333 329 321 318 315 320 314 316 315 318 320 316 315 318 321 321 323 322 319 321 320 320
301 302 302 302 303 304 304 304 305 305 305 305 305 305 306 306 308 310 313 314 316 310 305 308 316 319 321 321 320 322 319 318 317 327 321 317 319 321 320 319 313 318 315 307 313 318 317 319 322 321 320 319 319 318
301 301 301 302 303 304 305 304 304 304 305 305 305 305 306 306 307 311 309 319 321 319 309 305 317 318 321 325 319 319 322 320 321 321 323 324 331 325 315 312 319 320 323 323 320 325 323 323 323 322 321 322 320 320
301 301 301 302 303 304 304 304 304 304 304 304 304 305 305 306 306 305 306 310 310 316 309 306 309 319 322 322 324 318 324 322 323 322 325 327 325 322 317 313 320 320 321 323 325 323 318 319 319 322 322 319 315 315
301 301 301 302 303 304 304 303 303 304 304 304 305 306 306 306 307 305 311 310 311 309 310 305 307 313 326 321 317 324 320 322 324 324 326 324 326 324 315 321 322 321 322 323 323 323 322 323 321 317 317 315 313 310
301 301 301 302 303 304 303 303 304 303 303 304 305 305 308 307 304 310 311 311 314 310 306 307 304 309 325 320 323 324 324 320 325 321 321 324 320 314 320 322 322 323 323 323 323 321 321 319 316 314 312 311 308 306
301 301 302 302 304 303 302 303 302 302 304 304 306 305 304 311 307 312 312 310 309 310 309 303 309 307 317 318 321 324 324 318 314 318 325 320 316 324 323 323 325 324 323 323 318 315 315 313 311 311 305 306 299 299
301 302 302 303 303 302 302 302 302 303 303 309 304 305 310 310 312 309 306 304 307 304 308 306 306 304 312 309 313 321 316 317 310 314 316 312 312 316 319 315 319 320 319 318 318 317 315 312 307 303 295 292 293 292
302 302 303 303 302 302 302 302 301 302 304 299 300 304 308 308 305 302 302 306 305 302 306 306 308 309 310 313 312 315 311 313 306 321 315 308 306 312 311 310 311 314 311 308 306 304 303 298 297 294 293 291 291 292
302 302 303 302 302 302 302 302 301 302 303 306 302 300 304 304 294 297 296 301 303 308 310 310 312 313 313 313 310 309 306 306 319 313 308 304 305 306 307 307 304 304 303 301 299 299 296 294 294 293 291 292 292 293
302 303 302 301 302 303 303 303 302 302 300 297 296 291 298 298 300 302 303 305 311 313 314 317 319 320 317 313 313 306 309 312 306 303 304 302 304 304 305 304 301 296 294 292 292 292 293 293 293 292 294 295 294 293
301 301 301 302 303 303 303 303 302 304 299 296 298 293 297 304 307 312 312 312 315 317 316 312 317 318 317 313 313 310 307 304 306 306 300 302 302 299 295 294 294 293 292 291 291 290 290 291 292 293 295 296 295 294
301 301 302 303 303 303 303 302 302 303 302 299 299 298 304 304 306 310 314 315 316 317 319 315 311 310 309 310 308 305 305 301 300 299 299 299 298 296 295 295 294 293 292 291 290 291 293 294 294 294 295 295 294 294
301 299 302 303 302 303 302 301 304 300 299 297 300 305 305 306 308 309 310 310 314 312 312 310 304 303 312 310 305 300 295 297 297 297 298 298 297 296 295 294 293 292 292 292 293 295 295 295 295 294 293 294 296 295
299 301 302 302 301 301 300 298 300 299 295 298 298 301 307 309 310 309 308 310 308 309 313 310 315 308 304 302 298 296 295 296 296 295 295 295 296 296 295 294 293 294 294 295 297 295 295 294 294 294 295 295 295 295
299 301 302 302 301 301 298 300 302 295 298 300 302 303 309 313 309 309 308 309 313 313 313 310 303 298 297 298 295 294 295 295 294 294 295 296 296 295 296 297 298 297 296 295 294 293 294 294 294 294 294 294 293 293
299 300 301 302 301 297 297 299 305 299 297 303 304 303 309 312 311 312 306 306 309 307 302 297 294 296 296 297 297 296 296 297 295 292 293 296 297 298 297 296 295 295 295 295 295 292 293 293 294 294 294 292 291 292
298 299 299 299 299 297 296 300 301 301 300 303 307 307 309 310 308 307 305 303 298 295 292 294 293 295 300 300 302 302 300 299 296 297 298 297 298 296 296 296 296 297 295 294 293 292 291 292 293 293 293 293 293 293
298 300 299 299 296 297 296 301 303 307 306 307 309 310 306 304 302 302 304 297 291 287 292 293 293 292 292 293 295 298 298 295 295 294 293 294 295 295 295 296 295 293 293 293 292 291 292 293 292 293 293 293 292 293
300 300 301 299 295 295 295 305 301 304 303 306 308 304 301 300 302 305 295 292 289 291 291 291 291 293 292 295 295 294 295 295 296 295 295 295 295 296 296 295 294 292 292 292 293 293 293 290 292 292 293 293 292 291
302 300 297 296 294 292 302 301 305 305 305 303 299 295 297 298 300 294 288 289 290 290 289 290 290 289 291 292 291 293 295 296 295 295 296 297 295 293 294 293 294 294 293 293 293 293 293 293 290 292 292 291 290 289
294 295 296 293 300 297 296 300 302 301 299 301 297 295 296 300 293 290 287 288 289 288 289 291 290 290 288 289 293 294 295 295 294 293 294 295 295 295 295 295 295 294 294 292 291 292 292 292 292 291 290 289 288 288
289 297 293 297 299 296 299 298 300 299 299 298 297 298 299 292 288 285 287 289 290 291 291 290 289 289 291 297 295 293 294 296 296 293 293 294 293 292 291 291 291 292 294 293 292 291 291 291 290 289 289 288 286 288
290 294 300 302 298 298 299 300 304 300 297 296 296 296 292 285 283 287 290 294 293 293 293 292 293 296 296 295 295 295 295 295 294 293 295 295 295 295 293 291 290 292 293 293 293 291 290 289 289 289 288 289 289 288
295 294 292 294 292 293 292 291 293 293 294 297 299 293 289 286 285 291 293 294 294 294 294 296 298 299 297 295 296 295 295 295 295 295 296 296 296 296 295 295 295 284 293 294 292 292 291 290 288 288 288 288 288 289
294 297 294 289 290 289 287 287 288 292 294 298 293 287 286 291 294 291 291 293 294 295 294 295 295 296 295 295 296 295 295 294 292 289 289 290 291 292 294 294 294 294 294 293 286 287 289 288 289 289 289 289 289 289
292 294 288 286 285 284 287 291 292 295 296 293 293 292 291 290 291 294 294 294 294 295 297 296 295 296 295 295 293 293 294 295 294 291 289 289 290 293 294 293 293 293 293 292 291 291 285 288 288 289 288 288 288 287
294 291 288 288 286 291 294 296 297 297 296 295 295 292 290 291 293 295 296 298 297 296 295 294 295 295 295 294 293 293 292 294 294 293 292 293 294 293 293 292 292 292 292 291 290 289 289 288 288 287 287 286 286 285
295 290 289 290 291 296 299 297 297 295 294 293 292 293 293 294 291 295 298 298 297 294 288 295 294 293 294 295 294 293 284 294 293 292 291 291 291 291 291 292 291 291 291 290 289 289 288 287 287 286 285 285 285 285
297 296 296 295 294 294 297 296 294 293 294 293 294 295 297 295 290 295 300 301 299 296 295 295 295 295 294 294 294 293 289 294 288 283 284 283 282 285 288 290 290 290 290 289 289 288 288 287 287 286 286 286 285 284
Wind_Speed
10 10 11 13 13 14 14 14 14 15 16 17 18 18 18 18 17 12 9 3 6 8 16 18 14 13 10 11 10 9 4 7 7 8 9 5 5 7 7 9 4 9 8 7 8 6 4 7 5 8 3 6 4 3
11 12 12 13 13 13 13 13 13 14 15 16 17 17 17 18 17 13 9 7 7 8 14 21 21 22 22 18 8 6 4 9 3 5 2 5 5 7 6 8 4 7 5 4 6 2 4 4 6 5 6 7 5 4
13 12 12 13 14 14 14 12 13 14 15 16 17 17 16 16 17 10 8 9 9 11 13 16 13 12 11 15 14 6 8 5 2 7 8 6 4 8 8 1 8 6 7 8 5 2 7 9 7 7 8 6 3 2
13 13 13 13 14 14 14 13 12 14 15 16 17 17 17 16 17 15 9 9 7 7 8 5 5 9 7 9 14 20 15 9 9 8 8 8 3 2 7 2 9 2 11 7 10 13 9 7 7 7 6 6 4 6
13 13 14 13 14 14 14 13 13 14 16 17 18 17 17 17 18 14 11 10 8 7 8 12 20 25 17 17 14 15 15 12 9 7 7 8 8 4 7 4 10 3 3 3 16 7 10 7 10 8 9 7 9 10
14 14 14 14 14 14 14 12 13 14 16 17 18 18 17 16 15 10 4 3 3 3 6 7 7 10 7 7 13 16 11 9 9 9 6 5 5 2 5 8 10 11 8 11 10 9 8 9 8 10 10 9 9 8
14 14 14 15 14 14 12 13 14 15 17 18 19 18 17 14 8 7 9 4 11 10 6 7 7 11 10 10 8 9 13 8 8 11 9 8 6 4 10 14 13 6 8 8 5 2 5 6 7 6 10 10 8 10
14 14 14 15 15 14 11 13 14 15 18 19 20 19 18 16 16 10 10 20 10 8 6 6 6 7 11 9 9 9 9 9 9 8 6 7 3 6 7 8 7 7 5 4 6 8 4 9 11 9 11 10 11 10
14 14 15 15 15 12 12 12 14 16 19 21 22 25 11 7 7 1 6 11 8 8 7 6 10 2 6 10 4 6 7 5 7 9 11 4 6 8 4 7 5 6 7 8 6 6 9 9 11 10 9 10 8 7
15 15 15 15 13 11 11 12 13 17 21 23 12 8 7 5 5 6 5 6 8 7 7 10 13 12 8 4 3 1 4 4 5 11 7 6 12 11 6 6 7 4 1 3 7 10 12 10 10 7 9 7 15 11
16 15 14 14 11 10 10 10 11 16 18 3 3 4 7 3 6 7 7 8 9 7 8 10 16 14 11 10 3 5 5 5 6 6 7 5 7 5 7 12 10 10 11 12 9 9 8 9 12 12 14 13 10 8
15 14 14 13 10 10 9 9 9 8 3 7 7 8 6 6 6 7 7 7 8 9 8 10 11 12 8 8 5 6 5 5 5 7 4 6 5 8 11 12 11 12 15 16 18 16 18 17 15 12 10 8 5 3
16 15 13 11 10 10 10 9 9 9 13 7 4 5 7 6 4 8 10 8 7 7 7 9 6 6 6 5 6 7 7 7 4 3 4 4 8 6 9 9 11 12 15 16 16 14 13 14 12 9 8 6 8 10
16 14 11 11 11 11 11 11 6 6 3 4 5 6 7 8 8 11 11 8 5 6 2 4 1 1 3 8 6 7 8 4 6 10 1 4 8 9 8 10 11 13 13 13 11 10 9 8 7 6 7 6 3 3
11 11 10 11 10 10 10 8 5 2 4 4 6 7 10 12 8 5 8 9 4 12 4 2 4 5 3 5 4 5 3 6 1 5 3 6 10 11 12 11 10 9 8 9 5 6 6 6 5 5 5 3 3 5
12 7 9 8 9 11 9 8 6 3 5 5 9 10 11 9 6 6 4 7 8 11 12 8 2 4 6 5 5 2 5 7 4 4 6 8 11 11 10 10 10 9 8 5 3 3 6 2 5 4 3 3 4 6
13 5 10 13 12 9 5 4 5 8 7 7 8 9 11 10 6 4 6 5 7 7 7 8 7 6 2 1 5 6 4 3 5 6 6 9 10 11 10 10 8 7 5 6 5 4 5 4 5 5 5 5 7 7
7 7 10 5 7 5 5 5 6 7 10 8 10 8 7 4 5 4 4 5 3 4 6 3 6 5 8 7 5 4 4 6 7 7 8 9 10 8 6 8 7 7 7 9 1 4 2 4 7 6 8 7 7 9
6 3 11 8 4 5 7 9 6 6 8 10 11 10 6 1 2 1 4 5 4 6 4 4 6 4 3 4 5 7 6 5 7 6 7 8 8 7 7 8 9 6 4 4 4 6 5 6 6 6 7 7 7 8
11 4 4 4 4 4 7 5 7 8 7 6 10 10 5 2 4 3 4 5 5 3 6 5 4 3 3 5 6 7 6 5 6 5 4 5 5 6 4 3 3 3 5 3 4 2 6 7 6 7 7 7 7 8
10 9 6 3 3 4 6 6 7 7 7 9 6 9 3 3 2 3 4 5 5 5 4 5 4 5 8 8 7 6 6 5 4 5 6 5 4 5 5 4 2 2 3 4 6 5 4 7 6 8 8 8 9 10
6 13 5 5 4 5 7 7 8 6 6 5 5 6 3 2 3 4 3 6 5 3 4 3 4 6 8 8 6 7 9 8 6 5 6 6 4 3 2 1 4 5 5 5 6 6 6 6 7 7 8 8 9 9
14 9 6 8 7 7 9 6 8 8 6 5 6 6 3 3 3 2 5 4 3 1 3 5 7 9 9 9 10 7 5 4 5 5 3 3 3 2 3 3 4 5 6 6 6 6 6 3 1 7 9 9 11 10
10 8 8 9 9 6 6 6 6 5 2 2 3 5 4 4 3 3 5 3 4 4 6 8 7 7 7 6 5 4 5 4 4 4 3 1 2 4 4 5 4 4 5 6 6 6 7 8 6 9 10 12 11 11
8 6 5 7 6 7 7 7 10 6 3 5 3 3 3 2 3 3 3 5 6 6 6 5 5 5 5 4 4 5 5 5 4 4 4 3 3 2 0 3 3 4 5 6 7 8 8 9 10 11 12 11 13 13
7 9 8 8 6 5 6 4 6 5 3 3 3 4 2 3 3 4 2 6 5 6 5 5 5 4 4 2 4 5 5 5 2 4 4 5 5 6 6 6 6 5 9 8 8 10 11 12 12 14 13 14 7 12
5 3 2 3 3 4 3 4 3 4 3 3 5 6 4 3 3 3 3 5 6 4 4 4 4 3 4 5 5 5 5 6 7 6 5 5 5 4 5 6 6 8 8 8 9 11 11 12 12 14 13 12 12 12
1 2 3 3 3 4 3 4 5 4 2 3 1 5 4 3 3 5 4 4 5 5 5 4 3 4 4 4 3 4 4 3 5 6 5 5 4 4 2 5 5 6 6 6 7 10 10 11 13 13 13 13 11 11
1 1 3 5 4 4 5 4 4 3 4 4 4 3 3 2 5 5 6 6 6 7 6 5 5 4 4 4 3 4 4 5 6 6 6 5 5 6 6 6 7 7 8 9 3 1 5 8 10 11 12 11 10 10
3 3 4 5 5 5 3 3 2 3 4 5 7 13 12 9 7 7 8 7 7 6 5 4 4 3 2 1 5 4 4 5 6 7 7 7 7 6 7 8 8 8 8 8 9 10 2 7 9 10 11 11 11 12
4 4 4 3 3 5 6 7 9 13 14 15 13 14 15 12 9 6 5 5 6 5 5 4 4 3 2 3 3 3 5 6 7 7 6 6 7 8 9 8 7 8 8 9 9 10 11 11 11 12 13 14 15 13
7 7 9 17 11 9 10 11 12 13 12 12 13 12 11 9 8 4 5 5 5 6 3 1 4 4 4 4 5 6 2 5 7 7 10 8 8 9 9 8 8 8 9 10 10 10 11 11 11 12 12 14 14 14
14 13 14 12 11 9 9 8 9 10 8 9 8 6 4 6 6 4 2 3 4 5 5 4 5 6 5 5 5 4 2 7 8 6 5 5 4 6 8 7 8 9 11 11 10 11 12 14 12 13 14 15 15 15
Wind_Direction
291 302 309 311 311 318 320 326 329 332 337 341 341 341 342 337 344 335 311 38 312 302 295 282 285 295 294 276 309 2 183 203 199 249 269 290 233 241 256 260 263 255 275 263 228 283 277 138 173 239 124 157 191 201
289 295 299 302 307 308 313 318 322 327 332 339 341 337 337 334 336 337 288 355 331 267 290 306 284 274 267 271 288 277 309 297 304 240 242 273 246 235 242 287 154 247 255 322 311 7 153 228 272 98 188 185 185 194
284 288 296 297 299 300 308 314 317 322 328 332 336 334 332 329 328 335 305 311 288 269 272 253 245 240 222 234 227 257 233 345 240 346 310 308 309 302 277 356 312 220 196 230 270 15 235 227 214 204 207 210 168 217
278 284 290 293 293 296 304 307 311 317 324 327 330 329 327 323 320 319 285 303 292 285 279 305 216 233 229 218 208 218 260 318 317 271 263 267 278 113 283 263 281 16 172 287 280 258 224 223 207 185 195 120 146 81
272 283 289 292 293 292 299 304 306 312 316 320 324 324 325 321 315 299 269 259 253 273 312 313 303 270 248 237 224 217 229 244 261 282 247 256 278 258 280 315 277 124 149 59 299 347 218 168 143 146 148 135 90 109
272 278 286 290 290 289 293 293 297 304 307 312 318 319 319 318 320 291 236 151 185 232 273 285 341 277 218 204 216 218 207 221 235 248 257 281 98 257 225 247 246 251 210 222 254 309 337 98 125 161 175 142 114 122
270 274 284 287 290 288 287 294 298 303 307 313 316 311 308 306 300 272 346 342 337 309 253 270 258 185 222 209 200 208 208 220 232 229 236 241 244 217 257 253 266 277 251 221 203 163 93 135 159 139 133 114 92 112
266 268 280 282 288 289 288 293 296 299 305 307 308 302 292 291 276 254 233 226 225 276 266 269 264 267 177 210 207 193 196 208 229 227 243 229 207 225 255 255 253 261 240 220 200 175 305 147 127 149 151 144 145 136
264 268 274 277 287 276 283 291 293 300 303 302 301 293 278 222 233 95 105 129 201 274 299 240 265 336 178 236 204 150 233 178 247 219 223 223 226 224 294 297 190 226 227 215 176 124 127 149 147 153 159 148 132 123
261 262 267 271 273 270 282 288 298 301 301 298 279 235 218 78 116 175 164 198 198 205 224 257 279 268 293 312 198 134 259 190 231 219 209 226 243 58 49 19 336 355 301 247 175 156 157 144 142 149 94 116 61 66
256 258 255 266 258 267 278 285 303 320 284 221 283 311 338 157 240 213 225 215 180 215 209 231 234 250 250 257 260 211 190 220 226 206 187 227 219 91 69 54 33 35 60 51 65 88 114 130 122 102 74 64 64 60
252 252 257 251 251 259 263 278 307 284 327 319 284 293 279 238 219 227 211 208 222 219 195 216 218 210 242 252 252 276 262 233 243 136 191 244 84 87 90 74 58 59 72 75 78 82 84 84 89 96 102 105 109 162
251 249 241 235 244 246 259 262 298 298 288 290 218 244 218 225 228 227 212 199 216 200 228 198 198 179 199 223 221 244 230 252 106 204 247 59 123 110 111 114 92 73 81 79 78 79 87 94 97 113 131 166 197 216
239 219 218 231 234 250 248 268 281 302 277 243 250 238 233 211 224 214 240 241 323 311 263 189 142 149 190 190 238 213 233 253 245 242 240 117 135 125 99 93 105 94 88 88 94 101 101 105 123 149 180 190 220 235
200 208 219 225 239 237 252 264 258 261 266 250 247 243 230 252 303 294 315 309 7 316 304 296 212 174 226 238 219 238 192 224 268 51 58 92 106 102 95 97 106 101 95 93 105 109 120 141 159 167 183 226 298 317
199 204 219 216 206 223 251 247 237 219 245 233 233 254 275 278 301 346 340 331 10 328 313 295 9 165 215 212 223 243 277 38 46 50 95 101 99 104 109 106 99 102 98 105 147 192 205 184 43 31 332 292 302 313
183 229 140 198 213 213 229 250 230 214 247 229 233 234 270 290 331 334 334 334 323 294 255 254 220 233 240 240 81 21 37 33 87 86 86 92 92 95 95 97 101 110 160 198 202 199 54 353 359 331 298 324 306 305
224 164 161 186 207 173 191 206 256 237 236 247 268 273 278 336 340 356 334 332 316 320 303 305 325 348 18 5 61 85 82 76 77 85 87 89 90 99 115 127 157 169 188 215 96 22 268 352 314 327 337 315 309 279
204 204 180 179 222 269 199 202 233 265 239 238 244 260 304 80 88 28 328 321 246 264 291 360 38 40 53 64 102 110 103 94 100 89 88 99 113 138 159 183 184 174 95 46 2 357 332 345 304 307 327 323 335 337
251 287 144 188 216 264 239 205 201 248 261 250 217 247 230 241 185 90 37 345 328 27 40 39 39 14 59 79 95 106 100 99 101 105 131 154 163 183 145 163 108 140 201 208 238 260 360 315 348 343 354 337 296 297
204 213 175 182 226 236 287 301 229 237 238 261 233 216 185 198 58 23 46 27 43 32 58 50 65 66 75 91 102 111 130 152 155 173 172 143 123 169 164 150 216 359 316 355 355 3 294 343 350 358 331 324 352 327
178 163 175 163 250 233 253 236 260 337 257 245 192 171 191 124 81 39 33 48 54 25 348 69 97 101 90 85 103 105 93 93 101 124 141 184 139 135 133 6 343 358 355 0 6 343 335 3 9 328 328 331 300 325
134 172 211 182 234 226 253 229 244 233 236 183 154 134 108 94 84 96 79 64 62 305 148 95 97 105 109 102 94 99 112 147 96 86 88 86 100 53 48 51 27 2 348 11 347 340 343 341 3 305 313 336 346 342
185 199 200 184 199 261 264 238 224 238 200 109 92 116 126 118 119 70 89 84 120 135 117 127 122 107 99 99 94 102 90 100 102 74 28 9 81 75 21 19 13 22 20 345 342 345 334 339 323 343 350 343 342 336
188 217 215 229 227 219 230 235 209 177 231 116 108 122 126 146 88 92 108 130 139 133 128 112 96 99 108 121 125 85 14 27 62 75 54 30 342 252 177 33 37 63 24 346 348 341 342 341 346 349 340 337 335 335
223 197 205 209 198 212 230 241 174 135 93 95 85 104 91 86 78 91 96 122 101 111 155 161 134 140 171 142 91 67 47 14 38 76 47 18 22 1 5 351 356 32 31 344 328 341 343 347 343 336 330 332 329 319
244 259 166 38 341 331 305 302 96 109 169 181 150 165 129 91 99 86 132 166 151 137 134 149 193 195 100 91 82 62 53 55 21 20 33 23 32 22 359 360 356 29 333 322 344 348 342 340 332 331 329 330 329 340
121 316 14 14 53 350 329 21 28 43 54 308 276 42 64 68 106 150 132 135 135 138 147 163 188 81 73 85 92 110 96 134 177 231 235 195 131 104 48 346 1 166 287 336 355 339 343 347 338 329 330 327 330 335
77 359 122 46 82 60 34 20 3 360 323 317 86 93 94 76 115 114 130 136 141 150 159 152 115 117 123 104 69 47 43 20 3 5 355 355 0 23 15 350 348 348 352 342 83 36 10 327 311 311 314 312 330 335
53 31 92 46 47 24 300 262 11 59 53 86 110 112 100 90 97 120 133 148 162 174 117 132 161 175 107 95 111 89 71 50 37 8 0 357 358 358 357 359 347 345 352 346 342 335 224 302 339 343 344 345 347 348
140 111 61 77 96 112 103 117 115 106 102 104 106 104 110 121 121 129 137 131 117 136 150 123 100 68 53 39 24 322 112 76 56 35 18 329 3 12 2 338 344 352 346 344 333 337 347 343 346 345 343 344 342 337
139 110 127 122 126 132 115 103 100 99 104 106 111 121 138 127 105 127 151 168 120 88 37 105 111 83 48 73 79 91 300 39 44 26 22 7 0 360 343 339 1 350 345 343 339 337 339 340 340 341 332 334 342 345
121 130 122 117 125 124 123 110 97 100 109 121 132 142 97 81 109 123 173 321 114 109 95 94 97 76 70 44 40 101 221 92 92 103 117 87 31 344 311 357 3 344 349 333 334 337 341 345 338 339 339 341 345 356